Weather Roundup
Issued by NWS Corpus Christi, TX

Home | Current Version | Previous Version | Text Only | Print | Product List | Glossary On
Versions: 1 2 3 4 5 6 7 8 9 10 11 12 13 14 15 16 17 18 19 20 21 22 23 24 25 26 27 28 29 30 31 32 33 34 35 36 37 38 39 40 41 42 43 44 45 46 47 48 49 50
755
ASUS44 KCRP 250110
HRRCRP

SOUTH TEXAS REGIONAL WEATHER ROUNDUP
NATIONAL WEATHER SERVICE CORPUS CHRISTI TX
800 PM CDT SAT JUN 24 2017


TXZ229>244-250200-
...CORPUS CHRISTI AREA OBSERVATIONS...

CITY           SKY/WX    TMP DP  RH WIND       PRES   REMARKS
CORPUS CHRISTI MOCLDY    86  76  71 E9        29.94R HX  96
NAS CORPUS CHR MOCLDY    86  78  77 SE17      29.93R HX  98
ROCKPORT       PTCLDY    84  76  76 E12       29.95R HX  93
KINGSVILLE NAS CLOUDY    83  79  88 E7        29.94R HX  94
ALICE          MOCLDY    82  72  71 NE6       29.95R
ORANGE GROVE   PTCLDY    80  75  84 NE5       29.97R
FALFURRIAS     MOCLDY    82  74  74 N5        29.94R
$$

...VICTORIA AREA OBSERVATIONS...

CITY           SKY/WX    TMP DP  RH WIND       PRES   REMARKS
VICTORIA       CLOUDY    81  73  76 N13       29.99R
BEEVILLE       FAIR      81  74  81 NE8       29.98R
PLEASANTON     PTCLDY    79  70  74 NE9       30.01R
SAN ANTONIO    CLOUDY    82  66  58 E12       30.03R
$$

...LAREDO AREA OBSERVATIONS...

CITY           SKY/WX    TMP DP  RH WIND       PRES   REMARKS
LAREDO         PTCLDY    83  72  69 E13       29.97R
COTULLA        PTCLDY    82  67  60 NE12      29.97R
DEL RIO        CLOUDY    86  69  56 E9        29.96S HX  90
MCALLEN        PTCLDY    90  74  59 SE17G25   29.97R HX  99
HEBBRONVILLE   MOCLDY    75  69  80 CALM      30.00R
$$

...OTHER TEXAS OBSERVATIONS...

CITY           SKY/WX    TMP DP  RH WIND       PRES   REMARKS
BROWNSVILLE    CLEAR     85  76  74 E12       29.96R HX  94
HOUSTON        CLOUDY    83  74  74 E10       30.01R
COL. STATION   PTCLDY    80  71  74 NE6       30.04R
AUSTIN         CLOUDY    82  69  64 NE7       30.04R
WACO           CLOUDY    77  70  79 NE7       30.07R
FORT WORTH     PTCLDY    81  66  60 E9        30.08R
WICHITA FALLS  CLOUDY    78  66  66 SE10      30.12R
LUBBOCK        MOSUNNY   80  58  46 SE8       30.16R
EL PASO        MOSUNNY   93  54  26 E17G23    30.04R HX  91
$$

...MARINE OBSERVATIONS...

STATION/POSITION TIME  SKY/WX   TEMP    WIND        PRES    VSBY  WAVE   SWELL
                                AIR SEA DIR/SP/G                  HT/PER HT/PER
                 (UTC)          (F)     (DEG/KT/KT) (MB)    (MI)  (FT/S) (FT/S)
PORT ARANSAS     0100            84 86  110/ 15/ 17 1013.8R
BUOY 90 E PORT A 0050            84 84  100/ 12/ 16 1014.9F         4/ 6   3/ 6
BUOY 45 SE BAFFI 0050            84     120/ 16/ 19 1013.0F         5/ 7   2/12
BUOY 200 E PT IS 0050            83 84   90/  8/ 10 1015.9R         4/ 7   5/ 7
BUOY 15 E GALVES 2350            86 88   CALM  /  2 1015.9          3/ 7   3/ 7
$$




USA.gov is the U.S. government's official web portal to all federal, state and local government web resources and services.